Find Kosmos-332

NORAD ID: 4369 Int'l Des: 1970-028 Owner: OKB10 Country: SU operational
LEOCIRCULAR

リアルタイム位置

3D地球を読み込み中...

Kosmos-332について

説明を読み込み中...

次回通過

Passes for default location (London). Set your location on the main map for personalized predictions.

高度履歴

Loading altitude history...

軌道要素

1 04369U 70028A 26107.21855616 .00000147 00000-0 42208-4 0 9991
2 04369 74.0380 19.8290 0006931 257.9514 102.0872 14.53166750959244
Epoch: Apr 17, 2026 • Age: 9 hours

現在のステータス

高度 720.8 km
速度 7.50 km/s
衛星直下点 31.76°N, 130.55°E
タイプ other

Most Searched